DESCH 1615-ETNL

Flight info

Callsign DESCH
Flight time N/A
Altitude 5000
Route MURIZ/N0105A040 IFR DCT LINVO DCT BIGTI DCT TIMIB DCT LAG
Aircraft PA28/L-V/N

Departure

Time N/A
Airport 1615

Arrival

Time 2026-04-22 17:32
Airport Rostock-Laage Airport (ETNL)
Time Latitude Longitude Altitude Speed Heading
2026-04-22 16:12 52.91570 12.43002 133 ft 0 kts 232°
2026-04-22 16:12 52.91564 12.42987 133 ft 8 kts 232°
2026-04-22 16:12 52.91650 12.42822 133 ft 0 kts 324°
2026-04-22 16:30 52.91761 12.42690 133 ft 55 kts 326°
2026-04-22 16:30 52.92177 12.42254 380 ft 73 kts 329°
2026-04-22 16:30 52.92603 12.41874 764 ft 77 kts 338°
2026-04-22 16:31 52.93084 12.41499 1197 ft 76 kts 337°
2026-04-22 16:31 52.93549 12.41198 1145 ft 113 kts 349°
2026-04-22 16:31 52.94084 12.41136 1598 ft 97 kts
2026-04-22 16:32 52.94579 12.40544 2106 ft 92 kts 277°
2026-04-22 16:32 52.94302 12.39499 2440 ft 109 kts 240°
2026-04-22 16:32 52.93791 12.38556 2918 ft 113 kts 209°
2026-04-22 16:32 52.92986 12.38350 3153 ft 129 kts 178°
2026-04-22 16:33 52.92025 12.38433 3377 ft 146 kts 178°
2026-04-22 16:33 52.91030 12.38792 3620 ft 150 kts 142°
2026-04-22 16:33 52.90484 12.40172 3864 ft 143 kts 105°
2026-04-22 16:33 52.90121 12.41721 4127 ft 145 kts 107°
2026-04-22 16:34 52.89747 12.43278 4388 ft 145 kts 107°
2026-04-22 16:34 52.89376 12.44830 4655 ft 145 kts 107°
2026-04-22 16:34 52.89002 12.46378 4924 ft 145 kts 107°
2026-04-22 16:34 52.88955 12.47941 5166 ft 135 kts 61°
2026-04-22 16:35 52.89572 12.49100 5274 ft 140 kts 40°
2026-04-22 16:35 52.90297 12.50268 5294 ft 149 kts 43°
2026-04-22 16:35 52.91053 12.51479 5289 ft 151 kts 42°
2026-04-22 16:35 52.91767 12.52630 5282 ft 134 kts 43°
2026-04-22 16:36 52.92402 12.53644 5268 ft 119 kts 41°
2026-04-22 16:36 52.92976 12.54567 5270 ft 113 kts 43°
2026-04-22 16:36 52.93575 12.55353 5267 ft 107 kts 34°
2026-04-22 16:36 52.94088 12.56202 5264 ft 104 kts 53°
2026-04-22 16:37 52.94330 12.57352 5275 ft 108 kts 68°
2026-04-22 16:37 52.94540 12.58541 5278 ft 108 kts 70°
2026-04-22 16:37 52.94718 12.59725 5271 ft 105 kts 72°
2026-04-22 16:37 52.94887 12.60869 5269 ft 99 kts 72°
2026-04-22 16:38 52.95044 12.61962 5264 ft 96 kts 73°
2026-04-22 16:38 52.95198 12.63044 5265 ft 97 kts 72°
2026-04-22 16:38 52.95348 12.64114 5268 ft 94 kts 73°
2026-04-22 16:38 52.95630 12.65044 5259 ft 90 kts 33°
2026-04-22 16:39 52.96218 12.65435 5272 ft 97 kts
2026-04-22 16:39 52.96910 12.65484 5286 ft 101 kts 10°
2026-04-22 16:39 52.97641 12.65576 5284 ft 107 kts
2026-04-22 16:39 52.98397 12.65655 5281 ft 112 kts
2026-04-22 16:40 52.99186 12.65734 5288 ft 114 kts
2026-04-22 16:40 52.99990 12.65837 5291 ft 116 kts
2026-04-22 16:40 53.01595 12.66019 5276 ft 115 kts
2026-04-22 16:41 53.02399 12.66108 5286 ft 118 kts
2026-04-22 16:41 53.03220 12.66203 5271 ft 117 kts
2026-04-22 16:41 53.04023 12.66292 5271 ft 115 kts
2026-04-22 16:41 53.04820 12.66383 5275 ft 115 kts
2026-04-22 16:42 53.05616 12.66475 5265 ft 114 kts
2026-04-22 16:42 53.06406 12.66568 5265 ft 113 kts
2026-04-22 16:42 53.07195 12.66651 5268 ft 117 kts
2026-04-22 16:42 53.08101 12.66764 5290 ft 142 kts
2026-04-22 16:43 53.09154 12.66891 5284 ft 157 kts
2026-04-22 16:43 53.10251 12.67016 5286 ft 162 kts
2026-04-22 16:43 53.11386 12.67146 5296 ft 165 kts
2026-04-22 16:43 53.12550 12.67278 5282 ft 170 kts
2026-04-22 16:44 53.13723 12.67409 5274 ft 169 kts
2026-04-22 16:44 53.14892 12.67546 5272 ft 167 kts
2026-04-22 16:44 53.16053 12.67678 5277 ft 168 kts
2026-04-22 16:44 53.17227 12.67812 5275 ft 170 kts
2026-04-22 16:45 53.18407 12.67949 5222 ft 171 kts
2026-04-22 16:45 53.19604 12.68088 5122 ft 174 kts
2026-04-22 16:45 53.20815 12.68233 5015 ft 175 kts
2026-04-22 16:45 53.22025 12.68404 4910 ft 175 kts
2026-04-22 16:46 53.23236 12.68569 4802 ft 175 kts
2026-04-22 16:46 53.24448 12.68739 4692 ft 175 kts
2026-04-22 16:46 53.25661 12.68917 4587 ft 175 kts
2026-04-22 16:46 53.26875 12.69079 4481 ft 175 kts
2026-04-22 16:47 53.28090 12.69236 4372 ft 176 kts
2026-04-22 16:47 53.29309 12.69410 4274 ft 176 kts
2026-04-22 16:47 53.30112 12.69520 4270 ft 173 kts
2026-04-22 16:47 53.31719 12.69723 4262 ft 172 kts
2026-04-22 16:48 53.32911 12.69868 4259 ft 171 kts
2026-04-22 16:48 53.34078 12.70012 4262 ft 170 kts
2026-04-22 16:48 53.35269 12.70157 4265 ft 169 kts
2026-04-22 16:48 53.36425 12.70295 4258 ft 169 kts
2026-04-22 16:49 53.37596 12.70427 4261 ft 169 kts
2026-04-22 16:49 53.38770 12.70551 4268 ft 168 kts
2026-04-22 16:49 53.39936 12.70661 4270 ft 167 kts
2026-04-22 16:49 53.41101 12.70774 4277 ft 168 kts
2026-04-22 16:50 53.42267 12.70901 4280 ft 168 kts
2026-04-22 16:50 53.43435 12.71014 4275 ft 168 kts
2026-04-22 16:50 53.44607 12.71115 4277 ft 169 kts
2026-04-22 16:50 53.45782 12.71225 4277 ft 169 kts
2026-04-22 16:51 53.46956 12.71339 4272 ft 169 kts
2026-04-22 16:51 53.48129 12.71451 4261 ft 169 kts
2026-04-22 16:51 53.49305 12.71552 4269 ft 170 kts
2026-04-22 16:51 53.50501 12.71647 4272 ft 174 kts
2026-04-22 16:52 53.51704 12.71763 4271 ft 173 kts
2026-04-22 16:52 53.52906 12.71874 4266 ft 173 kts
2026-04-22 16:52 53.53703 12.71941 4263 ft 173 kts
2026-04-22 16:52 53.55319 12.72068 4263 ft 175 kts
2026-04-22 16:53 53.56526 12.72184 4257 ft 173 kts
2026-04-22 16:53 53.57722 12.72283 4266 ft 173 kts
2026-04-22 16:53 53.58922 12.72380 4260 ft 172 kts
2026-04-22 16:53 53.59719 12.72447 4260 ft 174 kts
2026-04-22 16:54 53.60929 12.72541 4261 ft 174 kts
2026-04-22 16:54 53.62138 12.72634 4257 ft 173 kts
2026-04-22 16:54 53.63337 12.72732 4261 ft 172 kts
2026-04-22 16:54 53.64531 12.72823 4258 ft 171 kts
2026-04-22 16:55 53.65725 12.72911 4269 ft 173 kts
2026-04-22 16:55 53.66934 12.73002 4254 ft 174 kts
2026-04-22 16:55 53.68150 12.73093 4252 ft 176 kts
2026-04-22 16:55 53.69364 12.73184 4261 ft 173 kts
2026-04-22 16:56 53.70579 12.73301 4063 ft 180 kts
2026-04-22 16:56 53.71837 12.73545 4006 ft 182 kts
2026-04-22 16:56 53.73061 12.73992 4010 ft 181 kts
2026-04-22 16:56 53.74251 12.74616 3994 ft 176 kts
2026-04-22 16:57 53.75419 12.75167 3991 ft 173 kts
2026-04-22 16:57 53.76572 12.75701 3996 ft 172 kts
2026-04-22 16:57 53.77717 12.76217 3995 ft 171 kts
2026-04-22 16:57 53.78806 12.76882 3902 ft 162 kts 14°
2026-04-22 16:58 53.79862 12.77589 3537 ft 164 kts
2026-04-22 16:58 53.80877 12.78105 3646 ft 141 kts
2026-04-22 16:58 53.81784 12.78623 3698 ft 132 kts
2026-04-22 16:58 53.82569 12.79066 4026 ft 115 kts
2026-04-22 16:59 53.83329 12.78947 3978 ft 112 kts 330°
2026-04-22 16:59 53.84051 12.78463 4060 ft 111 kts 335°
2026-04-22 16:59 53.84781 12.78089 4109 ft 115 kts 338°
2026-04-22 16:59 53.85571 12.77646 4024 ft 122 kts 334°
2026-04-22 17:00 53.86352 12.77114 3992 ft 122 kts 332°
2026-04-22 17:00 53.87861 12.76057 4093 ft 125 kts 335°
2026-04-22 17:00 53.88720 12.76218 4226 ft 134 kts 19°
2026-04-22 17:01 53.89419 12.77372 4161 ft 152 kts 44°
2026-04-22 17:01 53.89731 12.79188 4170 ft 166 kts 87°
2026-04-22 17:01 53.89710 12.79677 4247 ft 162 kts 93°
2026-04-22 17:02 53.89500 12.81062 4133 ft 173 kts 105°
2026-04-22 17:02 53.89456 12.81324 4151 ft 173 kts 104°
2026-04-22 17:02 53.89093 12.83314 4113 ft 169 kts 110°
2026-04-22 17:02 53.88672 12.85189 4092 ft 173 kts 126°
2026-04-22 17:03 53.87777 12.86440 4081 ft 166 kts 164°
2026-04-22 17:03 53.86681 12.86662 4044 ft 150 kts 205°
2026-04-22 17:03 53.85911 12.85795 4115 ft 123 kts 247°
2026-04-22 17:03 53.85729 12.84421 4029 ft 120 kts 287°
2026-04-22 17:04 53.86127 12.83259 4112 ft 119 kts 307°
2026-04-22 17:04 53.86702 12.82159 4066 ft 124 kts 314°
2026-04-22 17:04 53.87263 12.81136 4160 ft 111 kts 303°
2026-04-22 17:04 53.87452 12.79843 4071 ft 121 kts 278°
2026-04-22 17:05 53.87525 12.78463 4057 ft 118 kts 284°
2026-04-22 17:05 53.87718 12.77098 4005 ft 117 kts 290°
2026-04-22 17:05 53.87928 12.75805 4088 ft 113 kts 280°
2026-04-22 17:05 53.87736 12.74496 4086 ft 121 kts 245°
2026-04-22 17:06 53.86911 12.73728 4017 ft 149 kts 198°
2026-04-22 17:06 53.85903 12.74198 4048 ft 166 kts 151°
2026-04-22 17:06 53.85121 12.75619 4092 ft 162 kts 120°
2026-04-22 17:06 53.84823 12.77433 4065 ft 160 kts 83°
2026-04-22 17:07 53.84878 12.79290 4092 ft 159 kts 88°
2026-04-22 17:07 53.84837 12.81166 4093 ft 160 kts 83°
2026-04-22 17:07 53.85179 12.82861 4009 ft 150 kts 44°
2026-04-22 17:07 53.85906 12.83859 4149 ft 122 kts
2026-04-22 17:08 53.86706 12.83682 3890 ft 124 kts 323°
2026-04-22 17:08 53.87156 12.82593 3972 ft 108 kts 298°
2026-04-22 17:08 53.87434 12.81430 4052 ft 108 kts 282°
2026-04-22 17:08 53.87488 12.80094 3965 ft 117 kts 280°
2026-04-22 17:09 53.87585 12.78732 3971 ft 115 kts 283°
2026-04-22 17:09 53.87686 12.77385 4003 ft 114 kts 282°
2026-04-22 17:09 53.87799 12.76060 3995 ft 114 kts 286°
2026-04-22 17:09 53.87945 12.74756 3904 ft 118 kts 282°
2026-04-22 17:10 53.88034 12.73317 3670 ft 128 kts 275°
2026-04-22 17:10 53.88110 12.71938 3753 ft 103 kts 291°
2026-04-22 17:10 53.88513 12.70952 3716 ft 108 kts 310°
2026-04-22 17:10 53.88805 12.69786 3605 ft 113 kts 282°
2026-04-22 17:11 53.88717 12.68424 3501 ft 119 kts 272°
2026-04-22 17:11 53.88772 12.66992 3199 ft 126 kts 287°
2026-04-22 17:11 53.88948 12.65489 2870 ft 134 kts 284°
2026-04-22 17:11 53.89054 12.64177 3166 ft 105 kts 280°
2026-04-22 17:12 53.89107 12.62920 3045 ft 113 kts 280°
2026-04-22 17:12 53.89167 12.61606 3052 ft 109 kts 285°
2026-04-22 17:12 53.89276 12.60331 3047 ft 112 kts 284°
2026-04-22 17:12 53.89443 12.59070 3045 ft 110 kts 285°
2026-04-22 17:13 53.89497 12.57747 2930 ft 117 kts 278°
2026-04-22 17:13 53.89566 12.56452 3046 ft 105 kts 283°
2026-04-22 17:13 53.89732 12.55287 2935 ft 97 kts 302°
2026-04-22 17:13 53.90099 12.54348 2821 ft 94 kts 287°
2026-04-22 17:14 53.90019 12.53152 2418 ft 114 kts 266°
2026-04-22 17:14 53.89975 12.51993 2492 ft 87 kts 277°
2026-04-22 17:14 53.89974 12.50987 2531 ft 86 kts 275°
2026-04-22 17:14 53.89973 12.50019 2476 ft 81 kts 284°
2026-04-22 17:15 53.90061 12.49347 2365 ft 90 kts 291°
2026-04-22 17:15 53.90318 12.47998 2237 ft 88 kts 292°
2026-04-22 17:15 53.90417 12.46949 2094 ft 97 kts 273°
2026-04-22 17:15 53.90357 12.45840 2020 ft 89 kts 282°
2026-04-22 17:16 53.90497 12.44842 1864 ft 89 kts 292°
2026-04-22 17:16 53.90646 12.43786 1786 ft 90 kts 283°
2026-04-22 17:16 53.90642 12.42661 1588 ft 101 kts 269°
2026-04-22 17:16 53.90574 12.41559 1560 ft 87 kts 283°
2026-04-22 17:17 53.90753 12.40621 1487 ft 90 kts 292°
2026-04-22 17:17 53.90926 12.39536 1317 ft 97 kts 285°
2026-04-22 17:17 53.91019 12.38426 1226 ft 98 kts 282°
2026-04-22 17:17 53.91092 12.37330 1143 ft 95 kts 283°
2026-04-22 17:18 53.91228 12.36340 918 ft 78 kts 287°
2026-04-22 17:18 53.91207 12.35472 727 ft 62 kts 281°
2026-04-22 17:18 53.91240 12.34755 682 ft 58 kts 284°
2026-04-22 17:18 53.91322 12.34062 660 ft 62 kts 285°
2026-04-22 17:19 53.91423 12.32473 525 ft 68 kts 288°
2026-04-22 17:19 53.91580 12.30646 251 ft 86 kts 285°
2026-04-22 17:20 53.91847 12.28512 890 ft 103 kts 290°
2026-04-22 17:20 53.91919 12.26150 2027 ft 103 kts 280°
2026-04-22 17:21 53.92067 12.24999 2533 ft 96 kts 293°
2026-04-22 17:21 53.92291 12.22662 3264 ft 107 kts 281°
2026-04-22 17:22 53.92446 12.20128 3997 ft 116 kts 281°
2026-04-22 17:22 53.92547 12.18638 4007 ft 136 kts 279°
2026-04-22 17:22 53.92631 12.15133 4012 ft 154 kts 277°
2026-04-22 17:23 53.92675 12.13309 4011 ft 155 kts 277°
2026-04-22 17:23 53.92865 12.09673 4007 ft 153 kts 294°
2026-04-22 17:23 53.93299 12.08010 4003 ft 156 kts 290°
2026-04-22 17:24 53.93517 12.06193 4001 ft 157 kts 282°
2026-04-22 17:24 53.93620 12.04352 3998 ft 161 kts 269°
2026-04-22 17:24 53.93113 12.02620 3990 ft 176 kts 231°
2026-04-22 17:24 53.91928 12.01821 3985 ft 197 kts 192°
2026-04-22 17:25 53.90578 12.02455 3983 ft 211 kts 154°
2026-04-22 17:25 53.89521 12.04149 3989 ft 212 kts 121°
2026-04-22 17:25 53.88956 12.06425 3994 ft 206 kts 107°
2026-04-22 17:25 53.88515 12.08679 4002 ft 200 kts 107°
2026-04-22 17:26 53.88066 12.10876 3999 ft 195 kts 108°
2026-04-22 17:26 53.87602 12.13043 3992 ft 195 kts 109°
2026-04-22 17:26 53.87142 12.15183 3995 ft 193 kts 109°
2026-04-22 17:26 53.86685 12.17301 3994 ft 190 kts 109°
2026-04-22 17:27 53.86284 12.19428 3993 ft 188 kts 94°
2026-04-22 17:27 53.86392 12.21591 3951 ft 185 kts 74°
2026-04-22 17:27 53.86616 12.23740 3836 ft 191 kts 75°
2026-04-22 17:27 53.86804 12.26052 3516 ft 205 kts 78°
2026-04-22 17:28 53.86952 12.28484 3173 ft 209 kts 80°
2026-04-22 17:28 53.87088 12.30919 3008 ft 202 kts 79°
2026-04-22 17:28 53.87226 12.33260 2993 ft 198 kts 79°
2026-04-22 17:28 53.87377 12.35669 2589 ft 212 kts 79°
2026-04-22 17:29 53.87528 12.38163 2197 ft 213 kts 80°
2026-04-22 17:29 53.87678 12.40656 2007 ft 206 kts 80°
2026-04-22 17:29 53.87811 12.43005 2002 ft 196 kts 79°
2026-04-22 17:29 53.87945 12.45269 2002 ft 191 kts 80°
2026-04-22 17:30 53.88128 12.46697 1986 ft 184 kts 59°
2026-04-22 17:30 53.89292 12.48281 1986 ft 151 kts 357°
2026-04-22 17:30 53.90207 12.47793 1987 ft 135 kts 314°
2026-04-22 17:30 53.90553 12.46412 2003 ft 126 kts 275°
2026-04-22 17:31 53.90421 12.44986 1885 ft 113 kts 276°
2026-04-22 17:31 53.90458 12.43905 1717 ft 80 kts 286°
2026-04-22 17:31 53.90564 12.43106 1530 ft 57 kts 290°
2026-04-22 17:31 53.90576 12.42303 878 ft 86 kts 274°
2026-04-22 17:32 53.90726 12.41609 804 ft 53 kts 302°
2026-04-22 17:32 53.90926 12.41126 589 ft 49 kts 307°
2026-04-22 17:32 53.91136 12.40694 278 ft 36 kts 319°
2026-04-22 17:32 52.91570 12.43002 134 ft 0 kts 232°